User: anonymous   Login
Location: Muenchen
(48.1800°N, 11.5800°E)
Time: 22:42:23
(UTC+02:00)
Language:

ISS - Orbit

View from above orbital plane
View from above orbital plane
View from above satellite
View from above satellite

Ground track
Ground track

The orbit data is extracted from the following two-line orbital elements,

1 25544U 98067A   17144.56334323  .00016717  00000-0  10270-3 0  9025
2 25544  51.6384 156.0736 0005136 190.4110 169.6937 15.53945032 18072
Epoch (UTC): 24 May 2017 13:31:12
Eccentricity: 0.0005136
inclination: 51.6384°
perigee height: 402 km
apogee height: 409 km
right ascension of ascending node: 156.0736°
argument of perigee: 190.4110°
revolutions per day: 15.53945032
mean anomaly at epoch: 169.6937°
orbit number at epoch: 1807

The dashed part of the orbit path shows where the satellite is in the earth's shadow,  

DLR